This is the latest recevied weather packets stored in our database for station/object DO6DD-13. If no packets are shown the sender has not sent any weather packets the latest 10 day(s).
| Time | Temp. | Humidity | Pressure | Rain* | Wind** | Luminosity | Snow |
|---|---|---|---|---|---|---|---|
| 1777445420 | 8.33° C | 61% | 1029.1 hPa | - | - | 104 W/m² | - |
| 1777444820 | 7.78° C | 63% | 1029 hPa | - | - | 62 W/m² | - |
| 1777444219 | 7.22° C | 64% | 1029 hPa | - | - | 62 W/m² | - |
| 1777443619 | 7.22° C | 64% | 1028.9 hPa | - | - | 58 W/m² | - |
| 1777443028 | 6.67° C | 66% | 1028.8 hPa | - | - | 54 W/m² | - |
| 1777442428 | 6.11° C | 66% | 1028.8 hPa | - | - | 112 W/m² | - |
| 1777441817 | 6.11° C | 67% | 1028.8 hPa | - | - | 48 W/m² | - |
| 1777441217 | 5.56° C | 68% | 1028.6 hPa | - | - | 48 W/m² | - |
| 1777440626 | 5° C | 68% | 1028.5 hPa | - | - | 38 W/m² | - |
| 1777440026 | 5° C | 69% | 1028.5 hPa | - | - | 30 W/m² | - |
| 1777439425 | 4.44° C | 70% | 1028.3 hPa | - | - | 28 W/m² | - |
| 1777438825 | 4.44° C | 71% | 1028.2 hPa | - | - | 26 W/m² | - |
| 1777438224 | 4.44° C | 72% | 1028.1 hPa | - | - | 22 W/m² | - |
| 1777437634 | 4.44° C | 71% | 1028 hPa | - | - | 18 W/m² | - |
| 1777437023 | 4.44° C | 71% | 1027.9 hPa | - | - | 12 W/m² | - |
| 1777436422 | 4.44° C | 71% | 1027.9 hPa | - | - | 8 W/m² | - |
| 1777435822 | 4.44° C | 70% | 1027.8 hPa | - | - | 6 W/m² | - |
| 1777435221 | 5° C | 67% | 1027.8 hPa | - | - | 4 W/m² | - |
| 1777434631 | 5° C | 66% | 1027.8 hPa | - | - | 4 W/m² | - |
| 1777434030 | 5° C | 65% | 1027.8 hPa | - | - | 2 W/m² | - |
| 1777433420 | 5.56° C | 64% | 1027.7 hPa | - | - | 2 W/m² | - |
| 1777432829 | 5.56° C | 63% | 1027.7 hPa | - | - | 2 W/m² | - |
| 1777432219 | 5.56° C | 63% | 1027.7 hPa | - | - | 2 W/m² | - |
| 1777431618 | 5.56° C | 63% | 1027.8 hPa | - | - | 2 W/m² | - |
| 1777431028 | 5.56° C | 63% | 1027.8 hPa | - | - | 2 W/m² | - |
* Rain since midnight (hover to see other rain measurements)
** Current wind speed in m/s (hover to see current wind gust speed)